When you browse on this site, cookies collect data to enhance your experience and personalize the content and advertising you see.
Visit our Privacy Policy to learn more. By continuing to use the site, you agree to this use of cookies and data.
  • In United Kingdom
  • List of Countries
  • For 7 days
  • Water Temperature
  • Satellite Maps
  • Weather Map
  • Weather Widgets
  • user-avatar
    Login

    Hourly Weather Carmarthen

    Today, 14 December, Friday

    Time Temperature Precipitation Wind Pressure Humidity
    00:00 +2°C° 0 mm 9 mps 761 mmHg 75%
    01:00 +2°C° 0 mm 9 mps 761 mmHg 75%
    02:00 +2°C° 0 mm 9 mps 761 mmHg 76%
    03:00 +2°C° 0 mm 8 mps 761 mmHg 76%
    04:00 +2°C° 0 mm 8 mps 761 mmHg 78%
    05:00 +1°C° 0 mm 9 mps 761 mmHg 79%
    06:00 +1°C° 0 mm 8 mps 760 mmHg 82%
    07:00 +2°C° 0 mm 8 mps 761 mmHg 81%
    08:00 +2°C° 0 mm 9 mps 761 mmHg 80%
    09:00 +2°C° 0 mm 9 mps 761 mmHg 79%
    10:00 +2°C° 0 mm 9 mps 761 mmHg 78%
    11:00 +2°C° 0 mm 10 mps 761 mmHg 78%
    12:00 +3°C° 0 mm 10 mps 761 mmHg 77%
    13:00 +3°C° 0 mm 10 mps 760 mmHg 78%
    14:00 +3°C° 0 mm 10 mps 760 mmHg 79%
    15:00 +3°C° 0 mm 10 mps 759 mmHg 80%
    16:00 +3°C° 0.1 mm 11 mps 759 mmHg 81%
    17:00 +3°C° 0.1 mm 11 mps 759 mmHg 81%
    18:00 +3°C° 0.1 mm 11 mps 758 mmHg 82%
    19:00 +3°C° 0.4 mm 11 mps 758 mmHg 83%
    20:00 +3°C° 0.4 mm 11 mps 758 mmHg 84%
    21:00 +3°C° 0.4 mm 11 mps 758 mmHg 85%
    22:00 +3°C° 0.4 mm 11 mps 757 mmHg 85%
    23:00 +3°C° 0.4 mm 12 mps 757 mmHg 86%

    Tomorrow, 15 December, Saturday

    Time Temperature Precipitation Wind Pressure Humidity
    00:00 +3°C° 0.4 mm 12 mps 756 mmHg 86%
    01:00 +3°C° 0.5 mm 12 mps 756 mmHg 86%
    02:00 +3°C° 0.5 mm 12 mps 755 mmHg 86%
    03:00 +3°C° 0.5 mm 12 mps 754 mmHg 86%
    04:00 +2°C° 1.1 mm 12 mps 753 mmHg 87%
    05:00 +2°C° 1.1 mm 12 mps 753 mmHg 88%
    06:00 +2°C° 1.1 mm 12 mps 752 mmHg 88%
    07:00 +1°C° 2.7 mm 13 mps 751 mmHg 89%
    08:00 +1°C° 2.7 mm 13 mps 750 mmHg 89%
    09:00 +1°C° 2.7 mm 13 mps 749 mmHg 90%
    10:00 +3°C° 0.4 mm 14 mps 748 mmHg 89%
    11:00 +3°C° 0.4 mm 14 mps 746 mmHg 89%
    12:00 +2°C° 0.4 mm 15 mps 745 mmHg 89%
    13:00 +2°C° 3.1 mm 15 mps 743 mmHg 90%
    14:00 +2°C° 3.1 mm 15 mps 742 mmHg 90%
    15:00 +2°C° 3.1 mm 15 mps 740 mmHg 91%
    16:00 +4°C° 2.8 mm 15 mps 739 mmHg 91%
    17:00 +4°C° 2.8 mm 15 mps 738 mmHg 91%
    18:00 +5°C° 2.8 mm 15 mps 737 mmHg 91%
    19:00 +5°C° 2.3 mm 13 mps 736 mmHg 90%
    20:00 +5°C° 2.3 mm 12 mps 736 mmHg 89%
    21:00 +6°C° 2.3 mm 11 mps 736 mmHg 87%
    22:00 +4°C° 0.7 mm 11 mps 737 mmHg 84%
    23:00 +4°C° 0.7 mm 12 mps 738 mmHg 81%

    Day after tomorrow, 16 December, Sunday

    Time Temperature Precipitation Wind Pressure Humidity
    00:00 +4°C° 0.7 mm 13 mps 738 mmHg 78%
    01:00 +4°C° 0.6 mm 12 mps 739 mmHg 78%
    02:00 +3°C° 0.6 mm 10 mps 741 mmHg 78%
    03:00 +3°C° 0.6 mm 9 mps 742 mmHg 79%
    04:00 +3°C° 0.1 mm 9 mps 742 mmHg 79%
    05:00 +3°C° 0.1 mm 9 mps 743 mmHg 80%
    06:00 +2°C° 0.1 mm 9 mps 744 mmHg 81%
    07:00 +2°C° 0 mm 9 mps 744 mmHg 82%
    08:00 +2°C° 0 mm 8 mps 744 mmHg 83%
    09:00 +2°C° 0 mm 8 mps 745 mmHg 84%
    10:00 +2°C° 0 mm 8 mps 745 mmHg 83%
    11:00 +2°C° 0 mm 8 mps 745 mmHg 82%
    12:00 +4°C° 0 mm 8 mps 746 mmHg 81%
    13:00 +4°C° 0 mm 7 mps 746 mmHg 82%
    14:00 +4°C° 0 mm 7 mps 746 mmHg 82%
    15:00 +4°C° 0 mm 7 mps 746 mmHg 83%
    16:00 +4°C° 0 mm 7 mps 747 mmHg 84%
    17:00 +3°C° 0 mm 7 mps 747 mmHg 85%
    18:00 +3°C° 0 mm 7 mps 747 mmHg 86%
    19:00 +3°C° 0 mm 7 mps 748 mmHg 86%
    20:00 +3°C° 0 mm 7 mps 748 mmHg 86%
    21:00 +3°C° 0 mm 7 mps 749 mmHg 86%
    22:00 +3°C° 0 mm 6 mps 749 mmHg 87%
    23:00 +3°C° 0 mm 6 mps 750 mmHg 87%

    17 December, Monday

    Time Temperature Precipitation Wind Pressure Humidity
    00:00 +3°C° 0 mm 6 mps 750 mmHg 88%
    01:00 +2°C° 0 mm 6 mps 751 mmHg 89%
    02:00 +2°C° 0 mm 6 mps 751 mmHg 89%
    03:00 +2°C° 0 mm 5 mps 752 mmHg 90%
    04:00 +2°C° 0 mm 5 mps 752 mmHg 90%
    05:00 +2°C° 0 mm 5 mps 752 mmHg 89%
    06:00 +2°C° 0 mm 5 mps 753 mmHg 89%
    07:00 +2°C° 0 mm 5 mps 753 mmHg 88%
    08:00 +2°C° 0 mm 5 mps 753 mmHg 88%
    09:00 +2°C° 0 mm 6 mps 753 mmHg 87%
    10:00 +3°C° 0 mm 7 mps 753 mmHg 85%
    11:00 +4°C° 0 mm 8 mps 753 mmHg 82%
    12:00 +6°C° 0 mm 9 mps 752 mmHg 80%
    13:00 +6°C° 0 mm 10 mps 751 mmHg 81%
    14:00 +7°C° 0 mm 11 mps 750 mmHg 83%
    15:00 +7°C° 0 mm 12 mps 749 mmHg 84%
    16:00 +8°C° 0.4 mm 13 mps 748 mmHg 85%
    17:00 +8°C° 0.4 mm 13 mps 747 mmHg 86%
    18:00 +8°C° 0.4 mm 14 mps 746 mmHg 87%
    19:00 +8°C° 1.1 mm 14 mps 746 mmHg 87%
    20:00 +9°C° 1.1 mm 14 mps 745 mmHg 87%
    21:00 +9°C° 1.1 mm 15 mps 745 mmHg 87%
    22:00 +8°C° 2.1 mm 13 mps 744 mmHg 89%
    23:00 +8°C° 2.1 mm 12 mps 744 mmHg 91%

    18 December, Tuesday

    Time Temperature Precipitation Wind Pressure Humidity
    00:00 +8°C° 2.1 mm 11 mps 743 mmHg 93%
    01:00 +7°C° 1.6 mm 11 mps 743 mmHg 93%
    02:00 +7°C° 1.6 mm 11 mps 742 mmHg 93%
    03:00 +7°C° 1.6 mm 11 mps 741 mmHg 93%
    04:00 +7°C° 2.1 mm 12 mps 740 mmHg 92%
    05:00 +7°C° 2.1 mm 13 mps 739 mmHg 92%
    06:00 +6°C° 2.1 mm 15 mps 738 mmHg 91%
    07:00 +5°C° 2.1 mm 12 mps 738 mmHg 90%
    08:00 +5°C° 2.1 mm 10 mps 738 mmHg 89%
    09:00 +5°C° 2.1 mm 7 mps 737 mmHg 88%
    10:00 +5°C° 0.6 mm 7 mps 738 mmHg 89%
    11:00 +4°C° 0.6 mm 6 mps 738 mmHg 89%
    12:00 +4°C° 0.6 mm 6 mps 738 mmHg 90%
    13:00 +5°C° 0.1 mm 6 mps 738 mmHg 89%
    14:00 +5°C° 0.1 mm 6 mps 738 mmHg 89%
    15:00 +5°C° 0.1 mm 7 mps 738 mmHg 88%
    16:00 +5°C° 0.1 mm 7 mps 739 mmHg 88%
    17:00 +4°C° 0.1 mm 7 mps 739 mmHg 88%
    18:00 +4°C° 0.1 mm 7 mps 740 mmHg 88%
    19:00 +4°C° 0.1 mm 8 mps 740 mmHg 86%
    20:00 +4°C° 0.1 mm 8 mps 740 mmHg 85%
    21:00 +2°C° 0.1 mm 8 mps 740 mmHg 83%
    22:00 +2°C° 0 mm 8 mps 740 mmHg 83%
    23:00 +2°C° 0 mm 8 mps 740 mmHg 84%

    19 December, Wednesday

    Time Temperature Precipitation Wind Pressure Humidity
    00:00 +2°C° 0 mm 9 mps 740 mmHg 84%
    01:00 +2°C° 0 mm 9 mps 741 mmHg 84%
    02:00 +3°C° 0 mm 9 mps 741 mmHg 84%
    03:00 +3°C° 0 mm 9 mps 741 mmHg 84%
    04:00 +3°C° 0 mm 9 mps 741 mmHg 83%
    05:00 +2°C° 0 mm 9 mps 741 mmHg 83%
    06:00 +2°C° 0 mm 9 mps 741 mmHg 83%
    07:00 +2°C° 0 mm 9 mps 741 mmHg 82%
    08:00 +2°C° 0 mm 10 mps 740 mmHg 80%
    09:00 +2°C° 0 mm 10 mps 740 mmHg 79%
    10:00 +3°C° 0.4 mm 10 mps 740 mmHg 81%
    11:00 +3°C° 0.4 mm 11 mps 739 mmHg 82%
    12:00 +4°C° 0.4 mm 11 mps 738 mmHg 84%
    13:00 +4°C° 0.2 mm 11 mps 738 mmHg 85%
    14:00 +5°C° 0.2 mm 10 mps 738 mmHg 85%
    15:00 +5°C° 0.2 mm 9 mps 737 mmHg 85%
    16:00 +5°C° 0.1 mm 9 mps 737 mmHg 85%
    17:00 +5°C° 0.1 mm 9 mps 737 mmHg 85%
    18:00 +3°C° 0.1 mm 9 mps 737 mmHg 85%
    19:00 +3°C° 0.1 mm 9 mps 737 mmHg 85%
    20:00 +3°C° 0.1 mm 9 mps 737 mmHg 86%
    21:00 +3°C° 0.1 mm 9 mps 737 mmHg 87%
    22:00 +3°C° 0.2 mm 9 mps 737 mmHg 87%
    23:00 +3°C° 0.2 mm 9 mps 737 mmHg 87%
    Show more